Location: Newark
(41.1142°N, 73.9831°W)
Time: 21:48:06
(UTC+00:00)

N. Korean satellite - Pass Details

Date: 02 October 2019
Orbit: 455 x 508 km, 97.2° (Epoch: 18 October)

Event Time Altitude Azimuth Distance (km) Brightness Sun altitude
Rises 23:02:16 0° 207° (SSW) 2,498 10.6 -5.7°
Reaches altitude 10° 23:05:04 10° 232° (SW) 1,617 10.1 -6.2°
Maximum altitude 23:07:02 14° 267° (W) 1,362 10.4 -6.6°
Drops below altitude 10° 23:09:01 10° 302° (WNW) 1,613 10.3 -6.9°
Sets 23:11:48 0° 328° (NNW) 2,487 10.7 -7.5°
